Ouarzazate, Morocco

12:52 PM WET on May 23, 2017 (GMT +0000)
Ouarzazate

Weather History for GMMZ - March, 2013

Change the Weather History Date:

Sunday, March 3, 2013

  Actual Average Record
Temperature  
Mean Temperature 53 °F -  
Max Temperature 66 °F 72 °F - ()
Min Temperature 40 °F 46 °F - ()
Degree Days  
Heating Degree Days 12    
Growing Degree Days 3 (Base 50)    
Moisture  
Dew Point 22 °F    
Average Humidity 24    
Maximum Humidity 45    
Minimum Humidity 9    
Precipitation  
Precipitation 0.00 in 0.01 in - ()
Sea Level Pressure  
Sea Level Pressure 29.87 in    
Wind  
Wind Speed 2 mph ()    
Max Wind Speed 13 mph    
Max Gust Speed -    
Visibility 9.1 miles    
Events      
T = Trace of Precipitation, MM = Missing Value Source: Averaged Metar Reports

Daily Weather History Graph

Daily Weather History Graph

Search for Another Location

Airport or City:

Trip Planner

Search our weather history database for the weather conditions in past years. The results will help you decide how hot, cold, wet, or windy it might be!

Date:

Astronomy

Mar. 03, 2013 Rise Set
Actual Time 6:51 AM WET 6:27 PM WET
Civil Twilight 6:27 AM WET 6:51 PM WET
Nautical Twilight 5:59 AM WET 7:19 PM WET
Astronomical Twilight 5:31 AM WET 7:47 PM WET
Moon No Moon Rise 10:21 AM WET (3/3)
Length of Visible Light 12h 24m
Length of Day
11h 35m
Waning Gibbous, 66% of the Moon is Illuminated
Mar 3
Waning Gibbous
Mar 4
Last Quarter
Mar 11
New
Mar 19
First Quarter
Mar 27
Full

Hourly Weather History & Observations

Time (WET) Temp. Dew Point Humidity Pressure Visibility Wind Dir Wind Speed Gust Speed Precip Events Conditions
12:00 AM 54 °F 23 °F 18%  in 12 mi Calm Calm - -   Partly Cloudy
12:00 AM 55.4 °F 23.0 °F 29% 29.92 in - Calm Calm - N/A   Clear
1:00 AM 51.8 °F 21.2 °F 30% 29.95 in - WNW 2.3 mph - N/A   Clear
2:00 AM 53.6 °F 19.4 °F 26% 29.92 in - Calm Calm - N/A   Clear
3:00 AM 51 °F 19 °F 16%  in 12 mi Calm Calm - -   Partly Cloudy
3:00 AM 50.0 °F 19.4 °F 30% 29.92 in - Calm Calm - N/A   Clear
4:00 AM 46.4 °F 17.6 °F 32% 29.89 in - West 2.3 mph - N/A   Clear
5:00 AM 44.6 °F 15.8 °F 31% 29.89 in - West 2.3 mph - N/A   Clear
6:00 AM 41 °F 18 °F 26%  in 12 mi Calm Calm - -   Scattered Clouds
6:00 AM 41.0 °F 17.6 °F 39% 29.89 in - Calm Calm - N/A   Clear
7:00 AM 44.6 °F 17.6 °F 34% 29.92 in - Calm Calm - N/A   Clear
8:00 AM 50.0 °F 17.6 °F 28% 29.92 in - Calm Calm - N/A   Clear
9:00 AM 51 °F 18 °F 15%  in 12 mi NNE 2.3 mph - -   Clear
9:00 AM 50.0 °F 17.6 °F 28% 29.92 in - Variable 2.3 mph - N/A   Clear
10:00 AM 53.6 °F 19.4 °F 26% 29.95 in - Variable 3.5 mph - N/A   Clear
11:00 AM 57.2 °F 21.2 °F 25% 29.92 in - Variable 1.2 mph - N/A   Clear
12:00 PM 60 °F 23 °F 13%  in 12 mi SSE 1.2 mph - -   Clear
12:00 PM 59.0 °F 23.0 °F 25% 29.92 in - Variable 1.2 mph - N/A   Clear
1:00 PM 62.6 °F 41.0 °F 45% 29.86 in - Variable 2.3 mph - N/A   Clear
2:00 PM 64.4 °F 23.0 °F 21% 29.83 in - Variable 2.3 mph - N/A   Clear
3:00 PM 64 °F 21 °F 10%  in 12 mi ENE 3.5 mph - -   Scattered Clouds
3:00 PM 64.4 °F 21.2 °F 19% 29.83 in - Variable 2.3 mph - N/A   Clear
4:00 PM 66.2 °F 17.6 °F 15% 29.80 in 6.2 mi NNE 4.6 mph - N/A   Scattered Clouds
5:00 PM 66.2 °F 17.6 °F 15% 29.77 in 6.2 mi SE 9.2 mph - N/A   Scattered Clouds
6:00 PM 65 °F 20 °F 9%  in 12 mi SE 12.7 mph - -   Scattered Clouds
6:00 PM 64.4 °F 21.2 °F 19% 29.77 in 6.2 mi SE 12.7 mph - N/A   Mostly Cloudy
7:00 PM 62.6 °F 21.2 °F 20% 29.80 in 6.2 mi SE 10.4 mph - N/A   Scattered Clouds
8:00 PM 62.6 °F 23.0 °F 22% 29.80 in 6.2 mi SE 11.5 mph - N/A   Mostly Cloudy
9:00 PM 61 °F 27 °F 17%  in 12 mi South 8.1 mph - -   Scattered Clouds
9:00 PM 60.8 °F 26.6 °F 27% 29.83 in 6.2 mi South 8.1 mph - N/A   Mostly Cloudy
10:00 PM 60.8 °F 26.6 °F 27% 29.83 in 6.2 mi Variable 2.3 mph - N/A   Mostly Cloudy
11:00 PM 57.2 °F 32.0 °F 38% 29.83 in 6.2 mi West 8.1 mph - N/A   Mostly Cloudy